Retour au catalogue

COSMOS 434 DEB

ActifLEO
NORAD 5426·DEBRIS·🇷🇺 Russia

Lancé Aug 12, 1971 depuis Baikonur Cosmodrome

Loading…

Prochains Passages (prochaines 24 heures)

TLE

FraisSource: Space-Track

Époque: Sep 14, 2026, 01:45 UTC

1 05426U 71069C   26257.07353875  .00002414  00000-0  26618-3 0  9997
2 05426  49.5260 280.7408 0054975  21.8750 338.4515 14.89973275900943

Suivez COSMOS 434 DEB en temps réel avec AllMySat

Download on the App Store